Вернуться в каталог

STARLINK-34144

АктивенСвязьVLEO
NORAD 63958·PAYLOAD·🇺🇸 United States

Запущен May 13, 2025 с Cape Canaveral Space Force Station

Loading…

Ближайшие Пролёты (ближайшие 24 часа)

TLE

СвежийSource: CelesTrak SupGP

Эпоха: Sep 14, 2026, 21:26 UTC

1 63958C 25099G   26257.89354167  .00000239  00000+0  86486-5 0  2578
2 63958  43.0013 187.8513 0001131 261.5691 355.8436 15.27581828    15

Отслеживайте STARLINK-34144 в реальном времени с AllMySat

Download on the App Store